Wind_Speed
3 3 4 3 3 2 2 1 1 1 1 2 1 2 2 2 1 2 2 1 1 1 1 1 1 1 1 2 2 3 3 3 3 3 3 4 4 4 4 5 5 4 5 5 5 6 6 7 8
4 4 4 4 3 3 2 2 2 3 3 3 3 3 2 2 2 2 2 2 1 1 1 2 2 2 2 2 2 3 4 4 4 4 4 4 4 4 5 5 4 3 3 4 5 5 6 6 7
4 4 4 4 4 3 2 3 3 3 4 4 4 4 3 3 3 3 2 2 2 2 2 2 2 3 3 3 3 4 4 4 5 4 5 5 5 5 5 5 4 3 3 4 5 5 6 6 6
5 5 5 5 4 4 3 4 4 4 4 4 4 4 3 3 4 4 3 4 3 3 3 4 3 3 3 4 4 5 5 5 5 5 5 6 6 6 5 5 4 4 4 5 6 6 6 6 7
6 6 6 5 5 4 4 4 5 5 5 5 5 5 4 4 4 4 4 4 4 4 4 5 5 5 5 5 5 6 6 6 6 6 6 6 6 6 6 6 5 5 6 6 7 7 7 7 8
7 7 6 6 6 6 6 6 6 6 6 7 6 6 5 5 5 5 6 6 6 6 6 6 6 7 6 6 6 7 7 7 7 7 7 7 7 7 7 7 6 6 7 7 8 8 8 8 9
8 7 7 7 7 7 7 7 8 8 8 8 8 8 7 7 7 7 7 7 7 7 7 8 8 8 8 8 8 8 7 7 8 8 8 8 8 8 8 8 8 8 8 8 8 8 9 9 10
9 8 8 8 8 9 9 9 9 9 9 10 10 9 8 8 8 8 8 8 8 8 8 8 9 9 9 8 9 8 8 8 8 8 8 8 8 9 9 9 9 9 8 8 9 9 9 10 10
10 10 10 10 10 10 10 10 10 10 10 10 10 10 10 10 9 9 9 8 8 8 9 9 9 9 8 8 8 8 8 9 9 9 9 9 9 9 10 10 10 10 10 9 9 10 10 11 10
11 11 10 10 11 12 12 12 12 12 12 11 11 11 11 11 10 10 10 9 9 9 10 10 9 9 9 9 9 9 9 9 10 10 10 10 10 10 10 10 10 10 10 10 10 10 10 11 11
12 12 11 11 12 12 12 13 12 12 12 11 11 11 11 11 11 11 11 10 10 10 10 10 10 10 10 10 10 10 10 10 10 10 10 11 11 11 11 10 11 11 11 10 10 11 11 11 11
13 13 13 13 13 13 12 12 12 12 13 12 12 11 12 12 12 11 11 11 11 11 11 11 11 11 11 11 11 11 11 11 11 11 11 11 12 12 11 11 12 12 11 11 11 11 11 11 10
13 13 14 14 14 13 13 12 12 13 12 12 12 12 12 13 12 12 12 12 12 11 12 12 11 11 11 11 11 11 11 11 11 11 11 11 12 12 12 12 12 12 11 11 11 11 11 11 10
12 13 13 14 14 13 13 13 13 12 12 13 13 13 13 13 13 14 13 13 12 12 12 12 12 12 12 12 12 12 12 12 12 12 12 12 12 12 12 12 12 12 12 12 11 11 11 11 11
13 13 13 13 14 14 14 14 13 13 13 13 14 14 14 14 14 14 13 13 13 13 12 13 13 13 12 12 13 13 12 13 12 13 13 13 13 13 13 13 13 13 12 12 12 12 12 12 11
13 13 13 13 14 14 15 14 13 13 14 14 14 14 14 14 14 14 14 14 14 13 13 14 14 13 13 12 12 12 12 12 13 13 13 13 13 13 13 14 14 13 12 12 12 13 13 12 12
12 13 13 13 13 14 15 15 14 14 14 14 14 14 14 14 14 14 14 14 14 14 14 14 14 13 13 13 12 12 12 13 13 13 13 13 13 13 13 13 13 13 12 13 13 13 13 13 13
11 12 12 12 12 13 14 14 15 14 14 14 14 14 14 14 14 14 15 15 15 15 15 14 14 13 13 13 13 13 13 13 13 13 13 13 13 13 13 13 13 13 13 13 13 13 13 13 14
12 12 12 12 12 13 14 14 14 13 14 15 15 14 14 14 14 14 14 15 15 15 15 14 14 14 13 14 14 14 14 13 13 13 14 13 13 13 13 13 14 14 14 14 14 13 13 14 14
12 13 12 12 13 14 14 14 13 14 14 14 15 15 15 15 15 14 15 15 15 15 15 15 14 14 14 15 15 15 15 14 14 14 14 14 14 14 14 14 14 14 15 15 15 15 15 15 15
12 12 12 13 13 14 14 13 13 14 14 15 15 15 15 16 16 15 16 16 16 16 16 15 15 15 15 15 15 15 15 15 15 14 14 14 14 14 14 14 15 15 15 16 16 16 16 16 16
12 12 13 13 13 13 13 15 13 14 15 16 16 16 16 16 16 16 16 17 16 16 16 16 16 16 16 16 16 16 15 15 15 15 15 15 15 15 15 16 16 16 16 16 16 16 17 17 17
12 13 13 13 13 14 13 15 15 15 15 16 16 16 16 16 17 16 16 16 16 16 16 17 17 17 17 17 17 17 16 16 16 16 16 16 16 16 16 17 17 17 17 17 17 17 17 18 18
14 14 13 14 15 15 13 15 16 17 17 17 17 16 16 17 17 17 17 16 17 17 17 17 17 18 18 18 18 18 17 17 17 17 17 17 17 17 18 18 18 18 17 18 18 18 18 18 18
14 14 14 14 15 16 15 17 17 19 20 19 18 18 18 18 18 18 18 18 18 18 18 18 18 18 18 18 18 18 18 18 18 18 18 18 18 19 19 19 19 19 19 19 19 19 19 19 19
15 15 16 16 16 15 16 17 18 19 21 20 20 20 19 20 20 19 19 19 19 19 19 19 19 19 19 19 20 20 20 20 20 20 20 20 20 20 20 20 20 20 20 20 20 20 20 20 20
16 17 16 16 17 17 17 18 20 21 22 21 21 21 21 21 21 21 20 20 20 20 20 20 20 20 21 21 21 22 22 22 22 22 21 21 21 21 21 21 21 21 21 22 22 21 21 21 21
18 18 18 18 18 19 19 20 21 22 23 22 22 22 22 21 22 22 22 22 22 22 22 22 22 22 22 23 23 23 23 23 22 22 22 22 22 22 23 23 23 23 23 23 23 22 22 23 23
20 19 19 20 20 21 21 21 21 22 23 23 22 23 23 22 23 23 24 24 24 24 23 23 23 23 24 24 24 24 24 23 23 23 23 23 23 24 24 25 25 25 25 24 24 24 24 25 25
21 21 21 22 22 24 25 23 23 24 25 25 24 24 23 24 25 25 25 25 25 25 25 25 24 24 25 25 25 25 24 24 24 24 24 24 24 25 26 26 25 25 25 25 25 25 26 26 26
Wind_Direction
209 211 202 203 197 208 198 190 185 175 175 202 223 227 231 236 261 271 279 298 305 326 336 350 347 308 305 299 288 289 286 300 304 308 305 302 305 308 305 307 308 283 261 256 262 263 267 263 262
213 217 219 218 218 228 214 213 211 225 235 242 248 252 250 251 264 282 285 284 290 297 312 324 322 314 311 300 298 296 294 298 303 308 311 310 313 316 317 325 326 304 270 260 264 267 274 269 268
224 224 227 229 239 248 249 235 229 240 254 256 252 258 263 262 264 274 284 286 282 288 296 309 315 313 306 303 303 307 308 304 305 311 316 319 320 318 317 321 321 296 279 272 268 266 273 270 270
232 234 234 234 244 255 261 256 257 256 258 263 255 253 260 265 272 275 279 281 283 288 296 294 293 305 307 308 310 311 303 304 308 309 313 317 317 316 314 313 311 296 282 276 274 269 271 272 273
232 232 234 235 241 249 252 255 264 263 270 270 268 260 263 273 278 284 286 288 291 293 296 293 295 308 310 309 311 314 309 305 307 306 306 308 310 310 308 306 302 294 285 279 276 271 271 273 275
234 238 237 240 239 239 255 258 257 256 262 267 268 267 268 274 279 282 284 288 295 297 301 301 302 304 305 304 304 306 301 298 301 303 304 302 301 302 302 301 297 291 285 282 280 280 278 277 279
237 239 242 244 245 247 252 257 261 260 262 264 263 267 270 270 275 279 283 286 290 294 296 295 296 299 301 299 298 300 297 297 297 297 297 296 295 297 298 296 295 293 289 285 285 284 279 279 282
239 240 242 244 249 253 255 257 261 262 262 263 262 265 268 271 273 276 282 285 288 292 295 293 292 294 298 298 295 296 299 298 297 297 293 291 292 294 295 294 293 291 289 286 285 286 285 282 283
241 243 248 251 250 253 256 258 258 260 261 262 263 265 266 269 271 274 276 280 285 289 292 293 292 296 298 299 297 297 298 298 297 298 293 289 288 291 291 291 291 288 287 286 288 286 286 285 282
243 247 250 254 253 255 258 259 258 258 260 262 262 263 266 269 271 273 276 280 285 288 292 293 293 296 297 296 297 297 295 295 298 299 297 290 287 289 289 289 290 289 288 287 286 285 285 291 291
246 249 250 257 259 260 260 259 258 259 259 261 260 266 265 267 271 275 277 279 282 287 290 290 293 295 294 293 293 294 293 293 294 296 298 296 290 289 287 287 286 287 285 286 284 283 288 292 292
249 253 257 258 261 262 262 261 259 259 263 266 267 271 268 267 269 273 278 280 281 284 287 289 292 293 293 293 292 293 295 293 293 297 298 298 295 290 288 287 287 286 286 286 287 287 292 293 292
253 257 260 261 262 262 262 262 262 265 265 265 269 270 271 269 271 274 277 280 281 283 285 288 291 292 292 291 292 293 294 294 295 297 297 296 295 291 290 290 288 288 288 287 289 291 295 300 299
256 258 259 261 262 262 262 261 261 264 264 264 267 269 270 272 272 274 276 277 278 281 284 288 291 292 291 289 290 291 292 291 290 291 294 294 293 292 289 288 289 288 289 290 292 293 295 295 298
255 258 261 264 264 263 261 261 262 264 265 265 267 269 269 271 271 271 274 276 277 279 283 287 291 292 290 288 288 289 291 291 289 290 292 292 291 291 289 287 287 287 288 291 293 293 294 295 295
256 259 263 265 265 264 263 262 262 264 264 264 267 270 269 270 273 272 274 276 277 279 282 285 288 289 289 288 289 292 293 291 291 292 292 291 289 290 290 289 288 288 288 289 291 290 290 293 294
260 264 267 268 268 267 265 265 262 264 263 262 268 273 272 271 273 274 274 276 278 280 282 283 286 287 287 289 290 293 294 292 291 291 291 289 290 293 293 293 292 290 288 289 290 290 288 289 292
264 264 266 270 270 270 269 266 264 265 266 265 270 273 275 275 274 274 275 275 278 280 281 282 283 285 287 288 288 290 291 290 291 291 291 291 292 293 293 293 292 289 289 289 289 289 287 287 289
259 260 264 268 269 270 271 269 269 269 267 269 273 274 275 276 276 274 274 274 275 278 280 281 282 284 286 287 288 289 290 289 290 289 288 288 289 293 294 292 290 289 289 288 288 288 287 288 288
258 262 263 265 267 266 268 270 271 271 269 272 275 276 275 276 277 274 273 273 275 276 279 279 281 283 285 286 288 290 290 289 289 288 287 286 289 292 295 294 292 290 288 288 287 286 287 288 288
259 260 259 262 262 263 267 270 272 273 272 274 275 275 275 276 278 276 275 274 273 275 278 279 280 282 284 286 288 289 287 287 286 285 286 287 287 289 291 293 292 291 289 288 286 286 286 287 287
256 258 261 263 263 266 270 273 271 273 274 275 274 274 273 274 276 276 276 275 274 275 276 277 278 281 283 286 287 288 287 286 285 284 285 286 286 288 289 289 290 291 291 290 288 287 286 286 286
257 257 260 262 264 268 269 271 271 273 274 276 277 277 274 274 275 275 275 275 274 273 274 276 277 279 281 283 285 286 286 284 283 283 283 285 285 285 287 288 288 289 290 290 290 288 287 286 287
259 259 260 263 266 269 270 269 270 272 275 275 278 278 276 274 273 273 274 274 274 274 275 277 278 278 279 282 283 284 285 284 283 282 281 282 283 284 285 286 287 287 288 289 289 288 288 287 287
259 260 263 265 266 270 276 272 273 275 277 275 276 275 275 276 274 274 274 275 274 275 275 277 278 278 279 280 282 282 283 283 282 282 282 280 281 283 284 286 286 286 286 288 288 287 287 287 288
261 258 261 262 262 269 268 272 275 276 276 275 278 277 274 275 277 277 276 276 276 276 276 276 277 278 278 279 280 282 283 282 281 280 282 281 281 283 284 285 285 287 287 286 286 286 287 287 288
258 257 260 263 264 267 269 269 271 274 276 276 275 275 274 275 276 277 277 276 275 276 276 276 277 277 277 278 280 282 282 281 280 279 281 280 279 281 283 285 285 285 286 286 286 285 285 286 288
260 259 257 259 263 264 267 266 267 270 275 279 276 275 274 274 275 275 275 273 274 275 275 275 277 276 277 277 279 281 280 279 279 278 281 279 279 280 282 283 284 284 285 284 283 283 284 285 286
264 261 258 259 260 263 266 266 268 272 274 276 277 277 275 274 273 273 273 273 273 274 275 275 276 276 276 277 278 278 279 279 279 279 280 280 279 280 282 283 283 284 284 284 284 283 283 284 284
263 260 259 259 260 261 266 267 268 270 272 273 273 273 273 273 272 272 273 273 274 274 275 275 275 275 276 276 277 277 278 278 278 280 280 279 280 280 282 283 284 284 283 283 283 283 284 285 284
Height
5865 5865 5865 5866 5867 5867 5867 5868 5868 5868 5869 5869 5869 5869 5869 5870 5871 5873 5871 5870 5870 5870 5869 5869 5868 5868 5868 5869 5869 5869 5869 5869 5868 5868 5868 5867 5867 5866 5865 5863 5860 5858 5860 5863 5864 5865 5865 5866 5866
5865 5865 5866 5866 5866 5866 5867 5867 5868 5868 5869 5869 5869 5869 5869 5870 5870 5870 5870 5870 5870 5870 5870 5869 5869 5869 5869 5869 5869 5869 5869 5868 5868 5867 5867 5867 5866 5865 5865 5863 5860 5859 5860 5862 5863 5864 5864 5864 5865
5864 5865 5866 5866 5866 5867 5867 5867 5867 5868 5868 5869 5869 5869 5870 5870 5870 5870 5870 5870 5870 5870 5870 5869 5869 5869 5869 5869 5869 5868 5868 5868 5867 5867 5867 5866 5866 5865 5864 5863 5861 5861 5861 5862 5863 5863 5863 5863 5864
5864 5865 5866 5866 5866 5866 5866 5867 5867 5867 5868 5868 5869 5869 5869 5869 5870 5870 5870 5870 5870 5870 5869 5869 5869 5869 5869 5868 5868 5868 5867 5867 5867 5866 5866 5866 5865 5865 5864 5863 5862 5861 5861 5862 5862 5862 5862 5862 5862
5863 5864 5865 5865 5865 5865 5865 5866 5867 5867 5867 5868 5868 5868 5869 5869 5869 5869 5869 5869 5869 5869 5869 5869 5869 5868 5868 5868 5867 5867 5867 5866 5866 5866 5866 5865 5865 5864 5864 5863 5862 5862 5861 5861 5861 5861 5861 5861 5861
5862 5863 5864 5863 5864 5864 5865 5865 5866 5866 5867 5867 5868 5868 5868 5869 5868 5869 5869 5868 5868 5868 5868 5868 5868 5867 5867 5867 5867 5866 5866 5866 5865 5865 5865 5864 5864 5863 5863 5862 5862 5861 5861 5860 5860 5860 5860 5860 5860
5862 5862 5862 5863 5863 5864 5864 5864 5865 5866 5866 5866 5867 5867 5867 5867 5868 5868 5868 5868 5868 5867 5867 5867 5867 5866 5866 5866 5865 5865 5865 5864 5864 5864 5864 5863 5863 5862 5862 5861 5861 5860 5859 5859 5859 5858 5858 5858 5858
5859 5861 5861 5861 5862 5863 5863 5863 5864 5864 5864 5865 5865 5866 5866 5866 5866 5867 5867 5866 5866 5866 5866 5866 5865 5865 5865 5864 5864 5864 5863 5863 5863 5862 5862 5862 5861 5861 5860 5860 5859 5859 5858 5858 5857 5857 5857 5856 5856
5858 5860 5859 5860 5861 5861 5862 5862 5863 5863 5863 5863 5863 5864 5865 5865 5865 5865 5865 5865 5865 5865 5865 5864 5864 5864 5863 5863 5863 5862 5862 5862 5861 5861 5860 5860 5860 5859 5859 5858 5858 5857 5857 5856 5856 5856 5855 5855 5855
5856 5857 5858 5858 5859 5859 5860 5860 5861 5861 5861 5861 5862 5862 5862 5863 5863 5863 5864 5864 5864 5863 5863 5863 5863 5862 5862 5862 5861 5861 5861 5860 5860 5859 5859 5858 5858 5857 5857 5857 5856 5855 5855 5855 5854 5854 5853 5853 5853
5854 5855 5855 5856 5857 5857 5858 5858 5858 5859 5859 5860 5860 5860 5861 5861 5861 5861 5862 5862 5862 5862 5861 5861 5861 5861 5861 5860 5860 5860 5859 5859 5858 5858 5857 5856 5856 5855 5855 5855 5854 5854 5853 5853 5852 5852 5852 5851 5851
5852 5852 5853 5854 5855 5855 5856 5856 5857 5857 5858 5858 5858 5858 5859 5859 5859 5859 5860 5860 5860 5860 5860 5859 5859 5859 5859 5859 5858 5858 5857 5857 5856 5856 5855 5854 5854 5854 5853 5853 5852 5852 5852 5851 5851 5850 5850 5849 5849
5849 5850 5851 5851 5852 5853 5853 5854 5854 5855 5855 5855 5856 5856 5857 5857 5857 5857 5858 5858 5858 5858 5858 5858 5857 5857 5857 5857 5856 5856 5856 5855 5854 5854 5853 5852 5852 5851 5851 5851 5850 5850 5850 5849 5849 5848 5848 5847 5847
5847 5848 5848 5849 5849 5850 5851 5851 5852 5853 5853 5853 5853 5854 5854 5854 5855 5855 5855 5856 5856 5856 5856 5856 5855 5855 5855 5855 5854 5854 5853 5853 5852 5852 5851 5851 5850 5849 5849 5848 5848 5848 5847 5847 5846 5846 5846 5845 5845
5844 5845 5846 5846 5847 5847 5848 5849 5849 5850 5850 5851 5851 5851 5851 5852 5852 5852 5853 5853 5853 5853 5854 5853 5853 5853 5852 5852 5852 5851 5851 5850 5850 5849 5849 5848 5848 5847 5846 5846 5846 5845 5845 5844 5844 5844 5843 5843 5843
5841 5842 5843 5844 5844 5844 5846 5846 5847 5847 5847 5848 5848 5848 5849 5849 5849 5849 5850 5850 5850 5851 5851 5851 5851 5850 5850 5850 5849 5849 5848 5848 5847 5847 5846 5846 5845 5845 5844 5843 5843 5843 5842 5842 5841 5841 5841 5841 5841
5839 5839 5840 5841 5841 5841 5842 5843 5844 5844 5844 5844 5845 5846 5846 5846 5847 5847 5847 5847 5848 5848 5848 5848 5848 5848 5847 5847 5846 5846 5846 5845 5845 5844 5844 5843 5843 5842 5841 5841 5840 5840 5840 5839 5839 5839 5838 5838 5838
5837 5836 5837 5837 5838 5838 5838 5839 5840 5841 5841 5841 5842 5843 5843 5843 5844 5844 5844 5844 5845 5845 5845 5845 5845 5845 5845 5844 5844 5843 5843 5843 5842 5842 5841 5840 5840 5840 5839 5838 5838 5838 5837 5837 5836 5836 5836 5835 5835
5833 5834 5834 5835 5835 5835 5835 5836 5837 5838 5838 5839 5839 5840 5840 5840 5841 5841 5841 5841 5842 5842 5842 5842 5842 5842 5842 5841 5841 5840 5840 5840 5839 5839 5838 5838 5837 5837 5837 5836 5836 5835 5835 5834 5834 5833 5833 5833 5832
5830 5831 5831 5832 5832 5832 5832 5833 5834 5835 5835 5835 5836 5837 5837 5837 5838 5838 5838 5838 5838 5839 5839 5839 5839 5839 5838 5838 5838 5837 5837 5836 5836 5836 5835 5835 5834 5834 5834 5833 5833 5832 5832 5831 5830 5830 5830 5829 5829
5827 5828 5829 5829 5829 5829 5830 5830 5831 5832 5832 5833 5833 5834 5834 5834 5834 5835 5835 5835 5835 5835 5835 5835 5835 5835 5835 5835 5834 5834 5833 5833 5833 5832 5832 5832 5831 5831 5831 5830 5830 5829 5829 5828 5827 5827 5826 5826 5825
5824 5825 5825 5825 5826 5826 5827 5827 5829 5829 5829 5830 5830 5831 5831 5831 5831 5831 5831 5831 5832 5832 5832 5832 5832 5831 5831 5831 5831 5831 5830 5830 5829 5829 5829 5828 5828 5828 5827 5827 5826 5826 5825 5824 5824 5823 5823 5822 5821
5822 5822 5822 5823 5823 5823 5824 5824 5826 5826 5826 5826 5826 5827 5827 5828 5828 5828 5828 5828 5828 5828 5828 5828 5828 5828 5828 5828 5827 5827 5826 5826 5826 5825 5825 5825 5824 5824 5824 5823 5823 5822 5821 5821 5820 5819 5819 5818 5817
5819 5819 5819 5819 5820 5820 5822 5822 5822 5822 5823 5823 5823 5823 5824 5824 5824 5824 5824 5824 5824 5824 5824 5824 5824 5824 5824 5823 5823 5823 5822 5822 5822 5821 5821 5821 5820 5820 5820 5819 5819 5818 5818 5817 5816 5815 5815 5814 5813
5815 5816 5816 5816 5816 5818 5819 5819 5819 5819 5819 5819 5819 5820 5820 5820 5820 5820 5820 5820 5820 5820 5820 5820 5820 5820 5819 5819 5819 5818 5818 5818 5817 5817 5817 5816 5816 5815 5815 5815 5814 5814 5813 5813 5812 5811 5810 5810 5809
5811 5812 5813 5814 5814 5815 5816 5815 5816 5815 5815 5815 5816 5816 5816 5816 5815 5815 5815 5816 5816 5816 5816 5816 5816 5815 5815 5815 5814 5814 5813 5813 5813 5812 5812 5811 5811 5811 5810 5810 5809 5809 5808 5808 5807 5806 5806 5805 5804
5807 5807 5809 5810 5810 5810 5811 5812 5811 5810 5810 5810 5811 5811 5812 5812 5811 5811 5811 5811 5811 5811 5811 5811 5811 5810 5810 5810 5809 5809 5808 5808 5807 5807 5806 5806 5805 5805 5805 5804 5804 5804 5803 5802 5802 5801 5800 5800 5799
5803 5804 5805 5804 5805 5805 5807 5807 5807 5805 5805 5806 5806 5806 5806 5806 5806 5806 5806 5806 5806 5806 5806 5805 5805 5805 5804 5804 5804 5803 5802 5802 5801 5801 5800 5800 5800 5799 5799 5799 5798 5798 5797 5796 5796 5795 5795 5794 5793
5798 5799 5799 5800 5800 5801 5801 5804 5803 5801 5800 5800 5800 5800 5800 5801 5801 5800 5800 5800 5800 5800 5800 5799 5799 5798 5798 5798 5797 5797 5796 5796 5795 5795 5794 5794 5794 5793 5793 5792 5792 5791 5791 5790 5790 5789 5788 5788 5787
5792 5793 5794 5795 5795 5795 5795 5799 5797 5796 5794 5794 5794 5794 5794 5794 5794 5794 5794 5794 5794 5794 5794 5793 5793 5792 5792 5791 5791 5790 5790 5789 5789 5788 5788 5788 5787 5787 5786 5786 5785 5785 5784 5783 5783 5782 5782 5781 5780